Find Starlink 5882

NORAD ID: 55936 Int'l Des: 2023-037 Owner: SPXS Country: US Constellation: starlink operational
LEOCIRCULAR

当前视图

正在加载3D地球...

About Starlink 5882

Starlink 5882 (NORAD 55936) is a starlink constellation satellite (v1.5) launched Mar 17, 2023 by SPXS of US. It operates in LEO, CIRCULAR orbit with a mass of 305.00 kg.

即将过境

Passes for default location (London). Set your location on the main map for personalized predictions.

高度历史

Loading altitude history...

两行轨道根数

1 55936U 23037Y 26266.27512916 .00000162 00000-0 21344-4 0 9995
2 55936 69.9988 126.1104 0002508 270.9946 89.0925 14.98327604194074
Epoch: Sep 23, 2026 • Age: 8 hours

当前状态

高度 595.1 km
远地点 / 近地点 N/A
速度 7.56 km/s
星下点 -66.93°S, 148.7°E
发射日期 Mar 17, 2023
运行时间 3.5 years
类型 internet

技术详情

分类 Payload
质量 305.00 kg
干质量 290.00 kg
长度 0.20 m
跨度 9.00 m
形状 ? Box + pan
制造商 SPXS
平台类型 Starlink
阶段状态 In Orbit
所有者/国家 SPXS/US

Most Searched